Year,Month,Day,Hour,Minute,Value (Times are PST for temperature in C)
2008,09,16,00,00,12.80
2008,09,16,00,01,12.80
2008,09,16,00,02,12.80
2008,09,16,00,03,12.80
2008,09,16,00,04,12.80
2008,09,16,00,05,12.80
2008,09,16,00,06,12.80
2008,09,16,00,07,12.80
2008,09,16,00,08,12.80
2008,09,16,00,09,12.80
2008,09,16,00,10,12.80
2008,09,16,00,11,12.80
2008,09,16,00,12,12.80
2008,09,16,00,13,12.70
2008,09,16,00,14,12.70
2008,09,16,00,15,12.70
2008,09,16,00,16,12.70
2008,09,16,00,17,12.70
2008,09,16,00,18,12.70
2008,09,16,00,19,12.70
2008,09,16,00,20,12.70
2008,09,16,00,21,12.70
2008,09,16,00,22,12.60
2008,09,16,00,23,12.60
2008,09,16,00,24,12.60
2008,09,16,00,25,12.60
2008,09,16,00,26,12.60
2008,09,16,00,27,12.50
2008,09,16,00,28,12.50
2008,09,16,00,29,12.50
2008,09,16,00,30,12.50
2008,09,16,00,31,12.50
2008,09,16,00,32,12.60
2008,09,16,00,33,12.50
2008,09,16,00,34,12.50
2008,09,16,00,35,12.50
2008,09,16,00,36,12.50
2008,09,16,00,37,12.50
2008,09,16,00,38,12.50
2008,09,16,00,39,12.50
2008,09,16,00,40,12.50
2008,09,16,00,41,12.50
2008,09,16,00,42,12.50
2008,09,16,00,43,12.50
2008,09,16,00,44,12.50
2008,09,16,00,45,12.50
2008,09,16,00,46,12.50
2008,09,16,00,47,12.50
2008,09,16,00,48,12.50
2008,09,16,00,49,12.50
2008,09,16,00,50,12.50
2008,09,16,00,51,12.50
2008,09,16,00,52,12.50
2008,09,16,00,53,12.50
2008,09,16,00,54,12.40
2008,09,16,00,55,12.40
2008,09,16,00,56,12.40
2008,09,16,00,57,12.40
2008,09,16,00,58,12.40
2008,09,16,00,59,12.50
2008,09,16,01,00,12.50
2008,09,16,01,01,12.50
2008,09,16,01,02,12.50
2008,09,16,01,03,12.50
2008,09,16,01,04,12.50
2008,09,16,01,05,12.50
2008,09,16,01,06,12.40
2008,09,16,01,07,12.50
2008,09,16,01,08,12.40
2008,09,16,01,09,12.40
2008,09,16,01,10,12.40
2008,09,16,01,11,12.40
2008,09,16,01,12,12.30
2008,09,16,01,13,12.30
2008,09,16,01,14,12.30
2008,09,16,01,15,12.30
2008,09,16,01,16,12.30
2008,09,16,01,17,12.30
2008,09,16,01,18,12.30
2008,09,16,01,19,12.30
2008,09,16,01,20,12.30
2008,09,16,01,21,12.30
2008,09,16,01,22,12.30
2008,09,16,01,23,12.30
2008,09,16,01,24,12.30
2008,09,16,01,25,12.30
2008,09,16,01,26,12.30
2008,09,16,01,27,12.20
2008,09,16,01,28,12.20
2008,09,16,01,29,12.20
2008,09,16,01,30,12.20
2008,09,16,01,31,12.20
2008,09,16,01,32,12.20
2008,09,16,01,33,12.20
2008,09,16,01,34,12.20
2008,09,16,01,35,12.20
2008,09,16,01,36,12.20
2008,09,16,01,37,12.20
2008,09,16,01,38,12.20
2008,09,16,01,39,12.20
2008,09,16,01,40,12.20
2008,09,16,01,41,12.20
2008,09,16,01,42,12.20
2008,09,16,01,43,12.20
2008,09,16,01,44,12.10
2008,09,16,01,45,12.10
2008,09,16,01,46,12.10
2008,09,16,01,47,12.10
2008,09,16,01,48,12.20
2008,09,16,01,49,12.20
2008,09,16,01,50,12.30
2008,09,16,01,51,12.30
2008,09,16,01,52,12.30
2008,09,16,01,53,12.30
2008,09,16,01,54,12.30
2008,09,16,01,55,12.30
2008,09,16,01,56,12.30
2008,09,16,01,57,12.30
2008,09,16,01,58,12.30
2008,09,16,01,59,12.40
2008,09,16,02,00,12.40
2008,09,16,02,01,12.40
2008,09,16,02,02,12.50
2008,09,16,02,03,12.50
2008,09,16,02,04,12.50
2008,09,16,02,05,12.50
2008,09,16,02,06,12.50
2008,09,16,02,07,12.50
2008,09,16,02,08,12.50
2008,09,16,02,09,12.40
2008,09,16,02,10,12.40
2008,09,16,02,11,12.40
2008,09,16,02,12,12.40
2008,09,16,02,13,12.40
2008,09,16,02,14,12.40
2008,09,16,02,15,12.40
2008,09,16,02,16,12.40
2008,09,16,02,17,12.40
2008,09,16,02,18,12.40
2008,09,16,02,19,12.40
2008,09,16,02,20,12.40
2008,09,16,02,21,12.40
2008,09,16,02,22,12.40
2008,09,16,02,23,12.40
2008,09,16,02,24,12.30
2008,09,16,02,25,12.30
2008,09,16,02,26,12.30
2008,09,16,02,27,12.30
2008,09,16,02,28,12.40
2008,09,16,02,29,12.40
2008,09,16,02,30,12.40
2008,09,16,02,31,12.40
2008,09,16,02,32,12.40
2008,09,16,02,33,12.40
2008,09,16,02,34,12.40
2008,09,16,02,35,12.40
2008,09,16,02,36,12.40
2008,09,16,02,37,12.40
2008,09,16,02,38,12.40
2008,09,16,02,39,12.40
2008,09,16,02,40,12.40
2008,09,16,02,41,12.40
2008,09,16,02,42,12.40
2008,09,16,02,43,12.40
2008,09,16,02,44,12.40
2008,09,16,02,45,12.40
2008,09,16,02,46,12.40
2008,09,16,02,47,12.40
2008,09,16,02,48,12.30
2008,09,16,02,49,12.30
2008,09,16,02,50,12.30
2008,09,16,02,51,12.30
2008,09,16,02,52,12.30
2008,09,16,02,53,12.30
2008,09,16,02,54,12.20
2008,09,16,02,55,12.20
2008,09,16,02,56,12.30
2008,09,16,02,57,12.30
2008,09,16,02,58,12.20
2008,09,16,02,59,12.20
2008,09,16,03,00,12.20
2008,09,16,03,01,12.20
2008,09,16,03,02,12.20
2008,09,16,03,03,12.20
2008,09,16,03,04,12.20
2008,09,16,03,05,12.10
2008,09,16,03,06,12.10
2008,09,16,03,07,12.10
2008,09,16,03,08,12.10
2008,09,16,03,09,12.10
2008,09,16,03,10,12.10
2008,09,16,03,11,12.00
2008,09,16,03,12,12.00
2008,09,16,03,13,12.00
2008,09,16,03,14,12.00
2008,09,16,03,15,12.00
2008,09,16,03,16,12.00
2008,09,16,03,17,12.00
2008,09,16,03,18,12.00
2008,09,16,03,19,12.10
2008,09,16,03,20,12.10
2008,09,16,03,21,12.10
2008,09,16,03,22,12.10
2008,09,16,03,23,12.00
2008,09,16,03,24,12.00
2008,09,16,03,25,12.00
2008,09,16,03,26,12.00
2008,09,16,03,27,12.00
2008,09,16,03,28,12.00
2008,09,16,03,29,12.00
2008,09,16,03,30,12.00
2008,09,16,03,31,12.00
2008,09,16,03,32,12.00
2008,09,16,03,33,12.00
2008,09,16,03,34,12.00
2008,09,16,03,35,12.00
2008,09,16,03,36,12.00
2008,09,16,03,37,12.00
2008,09,16,03,38,12.00
2008,09,16,03,39,11.90
2008,09,16,03,40,11.90
2008,09,16,03,41,11.90
2008,09,16,03,42,11.90
2008,09,16,03,43,11.90
2008,09,16,03,44,11.90
2008,09,16,03,45,11.90
2008,09,16,03,46,11.90
2008,09,16,03,47,11.90
2008,09,16,03,48,11.90
2008,09,16,03,49,11.90
2008,09,16,03,50,11.90
2008,09,16,03,51,11.90
2008,09,16,03,52,12.00
2008,09,16,03,53,12.00
2008,09,16,03,54,12.00
2008,09,16,03,55,11.90
2008,09,16,03,56,11.90
2008,09,16,03,57,11.90
2008,09,16,03,58,11.90
2008,09,16,03,59,11.90
2008,09,16,04,00,11.90
2008,09,16,04,01,11.90
2008,09,16,04,02,11.90
2008,09,16,04,03,11.90
2008,09,16,04,04,11.90
2008,09,16,04,05,11.90
2008,09,16,04,06,11.90
2008,09,16,04,07,11.90
2008,09,16,04,08,12.00
2008,09,16,04,09,11.90
2008,09,16,04,10,11.90
2008,09,16,04,11,11.90
2008,09,16,04,12,11.90
2008,09,16,04,13,11.90
2008,09,16,04,14,11.90
2008,09,16,04,15,11.90
2008,09,16,04,16,11.90
2008,09,16,04,17,11.90
2008,09,16,04,18,11.90
2008,09,16,04,19,11.90
2008,09,16,04,20,11.90
2008,09,16,04,21,11.90
2008,09,16,04,22,11.90
2008,09,16,04,23,11.90
2008,09,16,04,24,11.80
2008,09,16,04,25,11.80
2008,09,16,04,26,11.80
2008,09,16,04,27,11.90
2008,09,16,04,28,11.90
2008,09,16,04,29,11.90
2008,09,16,04,30,11.90
2008,09,16,04,31,11.90
2008,09,16,04,32,11.90
2008,09,16,04,33,11.90
2008,09,16,04,34,11.90
2008,09,16,04,35,11.90
2008,09,16,04,36,11.90
2008,09,16,04,37,11.90
2008,09,16,04,38,11.90
2008,09,16,04,39,11.90
2008,09,16,04,40,11.90
2008,09,16,04,41,11.80
2008,09,16,04,42,11.80
2008,09,16,04,43,11.80
2008,09,16,04,44,11.80
2008,09,16,04,45,11.80
2008,09,16,04,46,11.80
2008,09,16,04,47,11.80
2008,09,16,04,48,11.80
2008,09,16,04,49,11.80
2008,09,16,04,50,11.80
2008,09,16,04,51,11.80
2008,09,16,04,52,11.70
2008,09,16,04,53,11.70
2008,09,16,04,54,11.70
2008,09,16,04,55,11.70
2008,09,16,04,56,11.70
2008,09,16,04,57,11.70
2008,09,16,04,58,11.70
2008,09,16,04,59,11.70
2008,09,16,05,00,11.70
2008,09,16,05,01,11.70
2008,09,16,05,02,11.70
2008,09,16,05,03,11.80
2008,09,16,05,04,11.80
2008,09,16,05,05,11.80
2008,09,16,05,06,11.80
2008,09,16,05,07,11.80
2008,09,16,05,08,11.80
2008,09,16,05,09,11.80
2008,09,16,05,10,11.80
2008,09,16,05,11,11.80
2008,09,16,05,12,11.80
2008,09,16,05,13,11.80
2008,09,16,05,14,11.80
2008,09,16,05,15,11.80
2008,09,16,05,16,11.80
2008,09,16,05,17,11.80
2008,09,16,05,18,11.80
2008,09,16,05,19,11.80
2008,09,16,05,20,11.80
2008,09,16,05,21,11.80
2008,09,16,05,22,11.80
2008,09,16,05,23,11.80
2008,09,16,05,24,11.80
2008,09,16,05,25,11.90
2008,09,16,05,26,11.80
2008,09,16,05,27,11.90
2008,09,16,05,28,11.80
2008,09,16,05,29,11.80
2008,09,16,05,30,11.80
2008,09,16,05,31,11.70
2008,09,16,05,32,11.70
2008,09,16,05,33,11.70
2008,09,16,05,34,11.70
2008,09,16,05,35,11.60
2008,09,16,05,36,11.60
2008,09,16,05,37,11.60
2008,09,16,05,38,11.60
2008,09,16,05,39,11.60
2008,09,16,05,40,11.60
2008,09,16,05,41,11.60
2008,09,16,05,42,11.60
2008,09,16,05,43,11.60
2008,09,16,05,44,11.60
2008,09,16,05,45,11.60
2008,09,16,05,46,11.60
2008,09,16,05,47,11.70
2008,09,16,05,48,11.70
2008,09,16,05,49,11.70
2008,09,16,05,50,11.70
2008,09,16,05,51,11.70
2008,09,16,05,52,11.70
2008,09,16,05,53,11.70
2008,09,16,05,54,11.70
2008,09,16,05,55,11.70
2008,09,16,05,56,11.70
2008,09,16,05,57,11.70
2008,09,16,05,58,11.70
2008,09,16,05,59,11.70
2008,09,16,06,00,11.70
2008,09,16,06,01,11.70
2008,09,16,06,02,11.70
2008,09,16,06,03,11.70
2008,09,16,06,04,11.60
2008,09,16,06,05,11.60
2008,09,16,06,06,11.60
2008,09,16,06,07,11.60
2008,09,16,06,08,11.60
2008,09,16,06,09,11.60
2008,09,16,06,10,11.60
2008,09,16,06,11,11.60
2008,09,16,06,12,11.60
2008,09,16,06,13,11.60
2008,09,16,06,14,11.60
2008,09,16,06,15,11.60
2008,09,16,06,16,11.60
2008,09,16,06,17,11.60
2008,09,16,06,18,11.60
2008,09,16,06,19,11.60
2008,09,16,06,20,11.60
2008,09,16,06,21,11.60
2008,09,16,06,22,11.60
2008,09,16,06,23,11.60
2008,09,16,06,24,11.60
2008,09,16,06,25,11.60
2008,09,16,06,26,11.60
2008,09,16,06,27,11.60
2008,09,16,06,28,11.60
2008,09,16,06,29,11.60
2008,09,16,06,30,11.60
2008,09,16,06,31,11.60
2008,09,16,06,32,11.60
2008,09,16,06,33,11.60
2008,09,16,06,34,11.60
2008,09,16,06,35,11.60
2008,09,16,06,36,11.60
2008,09,16,06,37,11.60
2008,09,16,06,38,11.70
2008,09,16,06,39,11.70
2008,09,16,06,40,11.70
2008,09,16,06,41,11.70
2008,09,16,06,42,11.70
2008,09,16,06,43,11.70
2008,09,16,06,44,11.70
2008,09,16,06,45,11.70
2008,09,16,06,46,11.60
2008,09,16,06,47,11.60
2008,09,16,06,48,11.60
2008,09,16,06,49,11.60
2008,09,16,06,50,11.60
2008,09,16,06,51,11.60
2008,09,16,06,52,11.60
2008,09,16,06,53,11.60
2008,09,16,06,54,11.60
2008,09,16,06,55,11.60
2008,09,16,06,56,11.60
2008,09,16,06,57,11.60
2008,09,16,06,58,11.60
2008,09,16,06,59,11.60
2008,09,16,07,00,11.60
2008,09,16,07,01,11.60
2008,09,16,07,02,11.50
2008,09,16,07,03,11.50
2008,09,16,07,04,11.50
2008,09,16,07,05,11.40
2008,09,16,07,06,11.50
2008,09,16,07,07,11.60
2008,09,16,07,08,11.50
2008,09,16,07,09,11.50
2008,09,16,07,10,11.50
2008,09,16,07,11,11.40
2008,09,16,07,12,11.40
2008,09,16,07,13,11.40
2008,09,16,07,14,11.40
2008,09,16,07,15,11.40
2008,09,16,07,16,11.40
2008,09,16,07,17,11.50
2008,09,16,07,18,11.50
2008,09,16,07,19,11.60
2008,09,16,07,20,11.60
2008,09,16,07,21,11.60
2008,09,16,07,22,11.50
2008,09,16,07,23,11.50
2008,09,16,07,24,11.50
2008,09,16,07,25,11.50
2008,09,16,07,26,11.60
2008,09,16,07,27,11.60
2008,09,16,07,28,11.60
2008,09,16,07,29,11.60
2008,09,16,07,30,11.70
2008,09,16,07,31,11.70
2008,09,16,07,32,11.70
2008,09,16,07,33,11.70
2008,09,16,07,34,11.80
2008,09,16,07,35,11.80
2008,09,16,07,36,11.80
2008,09,16,07,37,11.80
2008,09,16,07,38,11.80
2008,09,16,07,39,11.80
2008,09,16,07,40,11.90
2008,09,16,07,41,11.90
2008,09,16,07,42,11.90
2008,09,16,07,43,11.90
2008,09,16,07,44,11.90
2008,09,16,07,45,12.00
2008,09,16,07,46,12.10
2008,09,16,07,47,12.10
2008,09,16,07,48,12.20
2008,09,16,07,49,12.20
2008,09,16,07,50,12.30
2008,09,16,07,51,12.30
2008,09,16,07,52,12.40
2008,09,16,07,53,12.40
2008,09,16,07,54,12.50
2008,09,16,07,55,12.60
2008,09,16,07,56,12.60
2008,09,16,07,57,12.70
2008,09,16,07,58,12.80
2008,09,16,07,59,12.80
2008,09,16,08,00,12.90
2008,09,16,08,01,12.90
2008,09,16,08,02,13.00
2008,09,16,08,03,13.10
2008,09,16,08,04,13.10
2008,09,16,08,05,13.10
2008,09,16,08,06,13.20
2008,09,16,08,07,13.20
2008,09,16,08,08,13.20
2008,09,16,08,09,13.20
2008,09,16,08,10,13.30
2008,09,16,08,11,13.40
2008,09,16,08,12,13.50
2008,09,16,08,13,13.60
2008,09,16,08,14,13.70
2008,09,16,08,15,13.80
2008,09,16,08,16,13.90
2008,09,16,08,17,14.00
2008,09,16,08,18,14.00
2008,09,16,08,19,14.10
2008,09,16,08,20,14.20
2008,09,16,08,21,14.30
2008,09,16,08,22,14.40
2008,09,16,08,23,14.40
2008,09,16,08,24,14.50
2008,09,16,08,25,14.60
2008,09,16,08,26,14.60
2008,09,16,08,27,14.60
2008,09,16,08,28,14.60
2008,09,16,08,29,14.60
2008,09,16,08,30,14.60
2008,09,16,08,31,14.60
2008,09,16,08,32,14.70
2008,09,16,08,33,14.90
2008,09,16,08,34,15.00
2008,09,16,08,35,15.00
2008,09,16,08,36,15.10
2008,09,16,08,37,15.20
2008,09,16,08,38,15.40
2008,09,16,08,39,15.50
2008,09,16,08,40,15.70
2008,09,16,08,41,15.80
2008,09,16,08,42,15.90
2008,09,16,08,43,16.00
2008,09,16,08,44,16.10
2008,09,16,08,45,16.20
2008,09,16,08,46,16.30
2008,09,16,08,47,16.30
2008,09,16,08,48,16.30
2008,09,16,08,49,16.30
2008,09,16,08,50,16.30
2008,09,16,08,51,16.20
2008,09,16,08,52,16.10
2008,09,16,08,53,15.90
2008,09,16,08,54,15.80
2008,09,16,08,55,15.70
2008,09,16,08,56,15.60
2008,09,16,08,57,15.60
2008,09,16,08,58,15.60
2008,09,16,08,59,15.60
2008,09,16,09,00,15.60
2008,09,16,09,01,15.60
2008,09,16,09,02,15.60
2008,09,16,09,03,15.70
2008,09,16,09,04,15.70
2008,09,16,09,05,15.80
2008,09,16,09,06,15.80
2008,09,16,09,07,15.90
2008,09,16,09,08,15.90
2008,09,16,09,09,15.90
2008,09,16,09,10,15.90
2008,09,16,09,11,15.80
2008,09,16,09,12,15.80
2008,09,16,09,13,15.80
2008,09,16,09,14,15.80
2008,09,16,09,15,15.80
2008,09,16,09,16,15.80
2008,09,16,09,17,15.80
2008,09,16,09,18,15.80
2008,09,16,09,19,15.80
2008,09,16,09,20,15.80
2008,09,16,09,21,15.90
2008,09,16,09,22,15.90
2008,09,16,09,23,15.90
2008,09,16,09,24,15.90
2008,09,16,09,25,15.90
2008,09,16,09,26,15.90
2008,09,16,09,27,16.00
2008,09,16,09,28,16.00
2008,09,16,09,29,16.10
2008,09,16,09,30,16.10
2008,09,16,09,31,16.10
2008,09,16,09,32,16.20
2008,09,16,09,33,16.20
2008,09,16,09,34,16.20
2008,09,16,09,35,16.30
2008,09,16,09,36,16.30
2008,09,16,09,37,16.30
2008,09,16,09,38,16.40
2008,09,16,09,39,16.40
2008,09,16,09,40,16.50
2008,09,16,09,41,16.50
2008,09,16,09,42,16.60
2008,09,16,09,43,16.70
2008,09,16,09,44,16.70
2008,09,16,09,45,16.80
2008,09,16,09,46,16.90
2008,09,16,09,47,17.00
2008,09,16,09,48,17.00
2008,09,16,09,49,17.10
2008,09,16,09,50,17.20
2008,09,16,09,51,17.20
2008,09,16,09,52,17.30
2008,09,16,09,53,17.30
2008,09,16,09,54,17.30
2008,09,16,09,55,17.30
2008,09,16,09,56,17.30
2008,09,16,09,57,17.40
2008,09,16,09,58,17.40
2008,09,16,09,59,17.40
2008,09,16,10,00,17.40
2008,09,16,10,01,17.40
2008,09,16,10,02,17.40
2008,09,16,10,03,17.40
2008,09,16,10,04,17.40
2008,09,16,10,05,17.40
2008,09,16,10,06,17.40
2008,09,16,10,07,17.50
2008,09,16,10,08,17.50
2008,09,16,10,09,17.50
2008,09,16,10,10,17.60
2008,09,16,10,11,17.60
2008,09,16,10,12,17.60
2008,09,16,10,13,17.60
2008,09,16,10,14,17.60
2008,09,16,10,15,17.60
2008,09,16,10,16,17.60
2008,09,16,10,17,17.60
2008,09,16,10,18,17.60
2008,09,16,10,19,17.60
2008,09,16,10,20,17.60
2008,09,16,10,21,17.60
2008,09,16,10,22,17.60
2008,09,16,10,23,17.60
2008,09,16,10,24,17.60
2008,09,16,10,25,17.60
2008,09,16,10,26,17.60
2008,09,16,10,27,17.60
2008,09,16,10,28,17.50
2008,09,16,10,29,17.50
2008,09,16,10,30,17.40
2008,09,16,10,31,17.40
2008,09,16,10,32,17.40
2008,09,16,10,33,17.40
2008,09,16,10,34,17.50
2008,09,16,10,35,17.50
2008,09,16,10,36,17.60
2008,09,16,10,37,17.60
2008,09,16,10,38,17.60
2008,09,16,10,39,17.60
2008,09,16,10,40,17.60
2008,09,16,10,41,17.60
2008,09,16,10,42,17.70
2008,09,16,10,43,17.70
2008,09,16,10,44,17.70
2008,09,16,10,45,17.70
2008,09,16,10,46,17.70
2008,09,16,10,47,17.70
2008,09,16,10,48,17.70
2008,09,16,10,49,17.80
2008,09,16,10,50,17.80
2008,09,16,10,51,17.80
2008,09,16,10,52,17.80
2008,09,16,10,53,17.80
2008,09,16,10,54,17.80
2008,09,16,10,55,17.80
2008,09,16,10,56,17.80
2008,09,16,10,57,17.80
2008,09,16,10,58,17.90
2008,09,16,10,59,17.90
2008,09,16,11,00,17.90
2008,09,16,11,01,17.90
2008,09,16,11,02,17.90
2008,09,16,11,03,17.90
2008,09,16,11,04,17.90
2008,09,16,11,05,18.00
2008,09,16,11,06,18.10
2008,09,16,11,07,18.10
2008,09,16,11,08,18.10
2008,09,16,11,09,18.20
2008,09,16,11,10,18.20
2008,09,16,11,11,18.20
2008,09,16,11,12,18.30
2008,09,16,11,13,18.30
2008,09,16,11,14,18.30
2008,09,16,11,15,18.40
2008,09,16,11,16,18.40
2008,09,16,11,17,18.50
2008,09,16,11,18,18.50
2008,09,16,11,19,18.60
2008,09,16,11,20,18.70
2008,09,16,11,21,18.80
2008,09,16,11,22,18.80
2008,09,16,11,23,18.90
2008,09,16,11,24,18.90
2008,09,16,11,25,19.00
2008,09,16,11,26,19.00
2008,09,16,11,27,19.10
2008,09,16,11,28,19.20
2008,09,16,11,29,19.20
2008,09,16,11,30,19.30
2008,09,16,11,31,19.30
2008,09,16,11,32,19.40
2008,09,16,11,33,19.50
2008,09,16,11,34,19.50
2008,09,16,11,35,19.60
2008,09,16,11,36,19.60
2008,09,16,11,37,19.70
2008,09,16,11,38,19.70
2008,09,16,11,39,19.70
2008,09,16,11,40,19.70
2008,09,16,11,41,19.60
2008,09,16,11,42,19.60
2008,09,16,11,43,19.50
2008,09,16,11,44,19.50
2008,09,16,11,45,19.60
2008,09,16,11,46,19.60
2008,09,16,11,47,19.60
2008,09,16,11,48,19.60
2008,09,16,11,49,19.50
2008,09,16,11,50,19.40
2008,09,16,11,51,19.40
2008,09,16,11,52,19.40
2008,09,16,11,53,19.40
2008,09,16,11,54,19.40
2008,09,16,11,55,19.40
2008,09,16,11,56,19.40
2008,09,16,11,57,19.40
2008,09,16,11,58,19.40
2008,09,16,11,59,19.50
2008,09,16,12,00,19.50
2008,09,16,12,01,19.60
2008,09,16,12,02,19.60
2008,09,16,12,03,19.70
2008,09,16,12,04,19.70
2008,09,16,12,05,19.70
2008,09,16,12,06,19.80
2008,09,16,12,07,19.80
2008,09,16,12,08,19.80
2008,09,16,12,09,19.80
2008,09,16,12,10,19.80
2008,09,16,12,11,19.90
2008,09,16,12,12,19.90
2008,09,16,12,13,19.90
2008,09,16,12,14,20.00
2008,09,16,12,15,20.00
2008,09,16,12,16,20.00
2008,09,16,12,17,20.10
2008,09,16,12,18,20.10
2008,09,16,12,19,20.10
2008,09,16,12,20,20.10
2008,09,16,12,21,20.20
2008,09,16,12,22,20.20
2008,09,16,12,23,20.20
2008,09,16,12,24,20.20
2008,09,16,12,25,20.20
2008,09,16,12,26,20.30
2008,09,16,12,27,20.30
2008,09,16,12,28,20.40
2008,09,16,12,29,20.50
2008,09,16,12,30,20.60
2008,09,16,12,31,20.60
2008,09,16,12,32,20.60
2008,09,16,12,33,20.50
2008,09,16,12,34,20.40
2008,09,16,12,35,20.40
2008,09,16,12,36,20.30
2008,09,16,12,37,20.30
2008,09,16,12,38,20.40
2008,09,16,12,39,20.40
2008,09,16,12,40,20.40
2008,09,16,12,41,20.40
2008,09,16,12,42,20.30
2008,09,16,12,43,20.30
2008,09,16,12,44,20.30
2008,09,16,12,45,20.30
2008,09,16,12,46,20.40
2008,09,16,12,47,20.40
2008,09,16,12,48,20.30
2008,09,16,12,49,20.30
2008,09,16,12,50,20.30
2008,09,16,12,51,20.20
2008,09,16,12,52,20.30
2008,09,16,12,53,20.30
2008,09,16,12,54,20.30
2008,09,16,12,55,20.40
2008,09,16,12,56,20.50
2008,09,16,12,57,20.70
2008,09,16,12,58,20.70
2008,09,16,12,59,20.80
2008,09,16,13,00,20.90
2008,09,16,13,01,21.00
2008,09,16,13,02,21.10
2008,09,16,13,03,21.10
2008,09,16,13,04,21.20
2008,09,16,13,05,21.10
2008,09,16,13,06,21.10
2008,09,16,13,07,21.10
2008,09,16,13,08,21.10
2008,09,16,13,09,21.00
2008,09,16,13,10,21.00
2008,09,16,13,11,21.00
2008,09,16,13,12,21.00
2008,09,16,13,13,21.00
2008,09,16,13,14,21.00
2008,09,16,13,15,21.00
2008,09,16,13,16,21.00
2008,09,16,13,17,21.00
2008,09,16,13,18,21.00
2008,09,16,13,19,21.00
2008,09,16,13,20,21.00
2008,09,16,13,21,21.00
2008,09,16,13,22,21.00
2008,09,16,13,23,21.00
2008,09,16,13,24,21.00
2008,09,16,13,25,21.10
2008,09,16,13,26,21.10
2008,09,16,13,27,21.10
2008,09,16,13,28,21.20
2008,09,16,13,29,21.20
2008,09,16,13,30,21.10
2008,09,16,13,31,21.10
2008,09,16,13,32,21.20
2008,09,16,13,33,21.20
2008,09,16,13,34,21.20
2008,09,16,13,35,21.20
2008,09,16,13,36,21.20
2008,09,16,13,37,21.20
2008,09,16,13,38,21.20
2008,09,16,13,39,21.20
2008,09,16,13,40,21.30
2008,09,16,13,41,21.40
2008,09,16,13,42,21.50
2008,09,16,13,43,21.60
2008,09,16,13,44,21.60
2008,09,16,13,45,21.60
2008,09,16,13,46,21.70
2008,09,16,13,47,21.80
2008,09,16,13,48,21.80
2008,09,16,13,49,21.80
2008,09,16,13,50,21.80
2008,09,16,13,51,21.90
2008,09,16,13,52,22.10
2008,09,16,13,53,22.10
2008,09,16,13,54,22.20
2008,09,16,13,55,22.20
2008,09,16,13,56,22.20
2008,09,16,13,57,22.10
2008,09,16,13,58,22.10
2008,09,16,13,59,22.00
2008,09,16,14,00,22.00
2008,09,16,14,01,22.00
2008,09,16,14,02,22.10
2008,09,16,14,03,22.20
2008,09,16,14,04,22.30
2008,09,16,14,05,22.30
2008,09,16,14,06,22.50
2008,09,16,14,07,22.50
2008,09,16,14,08,22.60
2008,09,16,14,09,22.60
2008,09,16,14,10,22.70
2008,09,16,14,11,22.70
2008,09,16,14,12,22.70
2008,09,16,14,13,22.70
2008,09,16,14,14,22.70
2008,09,16,14,15,22.60
2008,09,16,14,16,22.60
2008,09,16,14,17,22.60
2008,09,16,14,18,22.60
2008,09,16,14,19,22.60
2008,09,16,14,20,22.70
2008,09,16,14,21,22.70
2008,09,16,14,22,22.70
2008,09,16,14,23,22.70
2008,09,16,14,24,22.70
2008,09,16,14,25,22.70
2008,09,16,14,26,22.70
2008,09,16,14,27,22.80
2008,09,16,14,28,22.90
2008,09,16,14,29,23.00
2008,09,16,14,30,23.10
2008,09,16,14,31,23.20
2008,09,16,14,32,23.20
2008,09,16,14,33,23.30
2008,09,16,14,34,23.30
2008,09,16,14,35,23.40
2008,09,16,14,36,23.30
2008,09,16,14,37,23.20
2008,09,16,14,38,23.10
2008,09,16,14,39,23.00
2008,09,16,14,40,23.00
2008,09,16,14,41,22.90
2008,09,16,14,42,22.90
2008,09,16,14,43,22.90
2008,09,16,14,44,22.90
2008,09,16,14,45,22.90
2008,09,16,14,46,22.90
2008,09,16,14,47,22.90
2008,09,16,14,48,23.00
2008,09,16,14,49,23.00
2008,09,16,14,50,23.10
2008,09,16,14,51,23.20
2008,09,16,14,52,23.30
2008,09,16,14,53,23.30
2008,09,16,14,54,23.40
2008,09,16,14,55,23.40
2008,09,16,14,56,23.40
2008,09,16,14,57,23.50
2008,09,16,14,58,23.50
2008,09,16,14,59,23.50
2008,09,16,15,00,23.50
2008,09,16,15,01,23.50
2008,09,16,15,02,23.40
2008,09,16,15,03,23.40
2008,09,16,15,04,23.40
2008,09,16,15,05,23.40
2008,09,16,15,06,23.40
2008,09,16,15,07,23.30
2008,09,16,15,08,23.30
2008,09,16,15,09,23.30
2008,09,16,15,10,23.30
2008,09,16,15,11,23.30
2008,09,16,15,12,23.30
2008,09,16,15,13,23.30
2008,09,16,15,14,23.30
2008,09,16,15,15,23.30
2008,09,16,15,16,23.20
2008,09,16,15,17,23.20
2008,09,16,15,18,23.10
2008,09,16,15,19,23.10
2008,09,16,15,20,23.20
2008,09,16,15,21,23.20
2008,09,16,15,22,23.20
2008,09,16,15,23,23.10
2008,09,16,15,24,23.10
2008,09,16,15,25,23.00
2008,09,16,15,26,23.00
2008,09,16,15,27,22.90
2008,09,16,15,28,22.90
2008,09,16,15,29,23.00
2008,09,16,15,30,23.00
2008,09,16,15,31,23.10
2008,09,16,15,32,23.20
2008,09,16,15,33,23.20
2008,09,16,15,34,23.20
2008,09,16,15,35,23.20
2008,09,16,15,36,23.20
2008,09,16,15,37,23.20
2008,09,16,15,38,23.20
2008,09,16,15,39,23.20
2008,09,16,15,40,23.10
2008,09,16,15,41,23.10
2008,09,16,15,42,23.10
2008,09,16,15,43,23.20
2008,09,16,15,44,23.20
2008,09,16,15,45,23.20
2008,09,16,15,46,23.30
2008,09,16,15,47,23.30
2008,09,16,15,48,23.40
2008,09,16,15,49,23.40
2008,09,16,15,50,23.40
2008,09,16,15,51,23.40
2008,09,16,15,52,23.40
2008,09,16,15,53,23.50
2008,09,16,15,54,23.50
2008,09,16,15,55,23.40
2008,09,16,15,56,23.40
2008,09,16,15,57,23.40
2008,09,16,15,58,23.40
2008,09,16,15,59,23.40
2008,09,16,16,00,23.40
2008,09,16,16,01,23.40
2008,09,16,16,02,23.40
2008,09,16,16,03,23.40
2008,09,16,16,04,23.50
2008,09,16,16,05,23.60
2008,09,16,16,06,23.60
2008,09,16,16,07,23.60
2008,09,16,16,08,23.60
2008,09,16,16,09,23.60
2008,09,16,16,10,23.70
2008,09,16,16,11,23.70
2008,09,16,16,12,23.70
2008,09,16,16,13,23.70
2008,09,16,16,14,23.70
2008,09,16,16,15,23.70
2008,09,16,16,16,23.70
2008,09,16,16,17,23.80
2008,09,16,16,18,23.80
2008,09,16,16,19,23.80
2008,09,16,16,20,23.80
2008,09,16,16,21,23.80
2008,09,16,16,22,23.90
2008,09,16,16,23,23.90
2008,09,16,16,24,23.90
2008,09,16,16,25,23.90
2008,09,16,16,26,23.90
2008,09,16,16,27,23.90
2008,09,16,16,28,23.90
2008,09,16,16,29,23.80
2008,09,16,16,30,23.80
2008,09,16,16,31,23.80
2008,09,16,16,32,23.80
2008,09,16,16,33,23.80
2008,09,16,16,34,23.80
2008,09,16,16,35,23.80
2008,09,16,16,36,23.80
2008,09,16,16,37,23.80
2008,09,16,16,38,23.90
2008,09,16,16,39,23.90
2008,09,16,16,40,23.90
2008,09,16,16,41,23.90
2008,09,16,16,42,23.80
2008,09,16,16,43,23.80
2008,09,16,16,44,23.80
2008,09,16,16,45,23.80
2008,09,16,16,46,23.70
2008,09,16,16,47,23.70
2008,09,16,16,48,23.70
2008,09,16,16,49,23.70
2008,09,16,16,50,23.70
2008,09,16,16,51,23.70
2008,09,16,16,52,23.70
2008,09,16,16,53,23.70
2008,09,16,16,54,23.70
2008,09,16,16,55,23.70
2008,09,16,16,56,23.70
2008,09,16,16,57,23.70
2008,09,16,16,58,23.70
2008,09,16,16,59,23.70
2008,09,16,17,00,23.70
2008,09,16,17,01,23.70
2008,09,16,17,02,23.70
2008,09,16,17,03,23.60
2008,09,16,17,04,23.50
2008,09,16,17,05,23.50
2008,09,16,17,06,23.40
2008,09,16,17,07,23.30
2008,09,16,17,08,23.30
2008,09,16,17,09,23.30
2008,09,16,17,10,23.30
2008,09,16,17,11,23.30
2008,09,16,17,12,23.30
2008,09,16,17,13,23.30
2008,09,16,17,14,23.30
2008,09,16,17,15,23.30
2008,09,16,17,16,23.30
2008,09,16,17,17,23.30
2008,09,16,17,18,23.30
2008,09,16,17,19,23.30